Location: Armagh
(54.3500°N, 6.6670°W)
Time: 00:18:29
(UTC+01:00)

ISS - Pass Details

Date: 16 December 2017
Orbit: 403 x 408 km, 51.6° (Epoch: 19 October)

Event Time Altitude Azimuth Distance (km) Brightness Sun altitude
Rises 17:30:20 0° 275° (W) 2,401 1.3 -11.6°
Reaches altitude 10° 17:33:32 10° 243° (WSW) 1,524 0.6 -12.0°
Maximum altitude 17:34:54 12° 219° (SW) 1,403 -0.1 -12.2°
Drops below altitude 10° 17:36:16 10° 195° (SSW) 1,515 -0.4 -12.4°
Sets 17:39:32 0° 162° (SSE) 2,409 0.2 -12.8°
